Location: Columbus
(35.2256°N, 82.1549°W)
Time: 18:46:40
(UTC-05:00)

Envisat - Pass Details

Date: 07 December 2021
Orbit: 764 x 766 km, 98.2° (Epoch: 21 January)

Event Time Altitude Azimuth Distance (km) Brightness Sun altitude
Rises 05:23:17 0° 13° (NNE) 3,236 6.3 -24.0°
Reaches altitude 10° 05:25:35 10° 13° (NNE) 2,306 5.5 -23.6°
Maximum altitude 05:30:41 85° 101° (ESE) 771 2.9 -22.6°
Drops below altitude 10° 05:35:44 10° 192° (SSW) 2,290 5.5 -21.6°
Sets 05:38:02 0° 193° (SSW) 3,212 6.2 -21.1°
